www.pogodaiklimat.ru

Погода и климат >> Архив погоды >> Ирак >> Diwaniya


ПОГОДА в Diwaniya

  • Прогноз погоды в Diwaniya
  • Монитор погоды в Diwaniya
  • Климат города

АРХИВ ПОГОДЫ в Diwaniya

Время (UTC), дата Ветер
(напр.,м/с)
 
Видим.   Явления Облачность Т
(С)
Тd
(С)
f
(%)
Тe
(С)
Тes
(С)
Комфортность P
(гПа)
Po
(гПа)
Тmin
(С)
Tmax
(С)
R
(мм)
R24
(мм)
S
(см)
06 12.11 штиль 0 6000 м дымка ясно +16.6 +12.6 77 +17 +21 1021.9 1022.0 +13.5
09 12.11 СЗ 2 10 км ясно +21.8 +13.6 60 +25 +33 комфорт 1021.0 1021.0
12 12.11 штиль 0 10 км 5/5 900 м
[Cu hum]
+23.2 +13.4 54 +26 +29 жарко 1020.2 1020.0
15 12.11 СЗ 2 10 км 3/3 1050 м
[Cu hum]
+21.0 +13.7 63 +24 +24 комфорт 1020.1 1020.0
18 12.11 штиль 0 10 км ясно +24.6 +14.5 53 +27 +27 жарко 1020.6 1021.0
21 12.11 З 2 10 км ясно +16.8 +13.2 79 +17 +17 1020.5 1021.0
00 13.11 штиль 0 3000 м дымка ясно +16.0 +13.3 84 +16 +16 1020.2 1020.0
03 13.11 СЗ 2 3000 м дымка ясно +15.0 +11.8 81 +15 +15 1020.1 1020.0
06 13.11 штиль 0 10 км ясно +17.0 +13.4 79 +17 +21 1020.7 1021.0 +12.6
09 13.11 З 2 10 км ясно +22.0 +14.3 62 +25 +34 комфорт 1019.5 1020.0
12 13.11 Ю 2 10 км 3/3 1050 м
[Cu hum]
+23.2 +13.4 54 +26 +29 жарко 1017.9 1018.0
15 13.11 штиль 0 10 км ясно +21.6 +14.6 64 +25 +25 комфорт 1017.4 1017.0
18 13.11 З 2 10 км ясно +18.8 +15.0 79 +20 +20 1017.7 1018.0 +24.2
21 13.11 СЗ 2 10 км ясно +17.2 +13.6 79 +18 +18 1017.0 1017.0
00 14.11 З 2 10 км ясно +15.8 +13.5 86 +16 +16 1016.0 1016.0
03 14.11 З 2 10 км ясно +15.8 +12.5 81 +16 +16 1016.4 1016.0
09 14.11 ЮВ 2 10 км 9/8 900 м
[Cu Sc As trans]
+20.4 +14.6 69 +24 +25 комфорт 1013.8 1014.0
12 14.11 Ю 2 10 км 10/10 900 м
[Cu Sc]
+21.6 +13.6 60 +24 +24 комфорт 1012.9 1013.0
15 14.11 ЮВ 4 10 км 10/10 900 м
[Cu Sc]
+18.6 +14.1 75 +19 +19 1012.4 1012.0
18 14.11 Ю 3 8000 м в посл. час дождь 10/8 900 м
[Cu Sc As op]
+15.9 +14.8 93 +15 +15 1013.2 1013.0 +23.6 7
21 14.11 ЮВ 3 8000 м в посл. час дождь 10/8 900 м
[Cu Sc As op]
+15.0 +11.0 77 +14 +14 1013.2 1013.0
00 15.11 ЮВ 4 10 км в посл. час дождь 10/8 900 м
[Cu Sc Ac cuf]
+15.0 +14.2 95 +14 +14 1010.4 1010.0
03 15.11 ЮВ 3 10 км 10/8 900 м
[Cu Sc As op]
+14.8 +13.0 89 +14 +14 1013.1 1013.0
09 15.11 ЮВ 2 10 км в посл. час морось 10/0
[As op]
+18.0 +17.1 94 +19 +20 1014.8 1015.0
12 15.11 ЮВ 2 10 км в посл. час морось 10/4 1050 м
[Cu hum As op]
+19.3 +18.0 92 +22 +22 комфорт 1013.4 1013.0
15 15.11 штиль 0 6000 м дымка 10/8 900 м
[Cu Sc As op]
+19.0 +18.2 95 +21 +21 комфорт 1013.6 1014.0
18 15.11 штиль 0 5000 м дымка 10/0
[As op]
+19.4 +17.9 91 +21 +21 комфорт 1013.2 1013.0 +20.5
21 15.11 штиль 0 6000 м дымка 10/8 900 м
[Cu Sc As op]
+18.8 +18.3 97 +20 +20 1013.6 1014.0
00 16.11 В 2 8000 м слабый ливневой дождь, в посл. час гроза 10/3 600 м
[Cb cap As op]
+15.6 +15.4 99 +15 +15 1012.6 1013.0
03 16.11 штиль 0 10 км в посл. час дождь {гроза} ясно +16.6 +15.5 93 +16 +16 1014.0 1014.0
09 16.11 штиль 0 6000 м дымка 10/8 900 м
[Cu Sc As op]
+19.0 +16.5 85 +20 +21 1018.8 1019.0
12 16.11 штиль 0 10 км ясно +20.0 +16.7 81 +22 +27 комфорт 1019.0 1019.0
15 16.11 штиль 0 4000 м дымка ясно +18.8 +16.6 87 +20 +20 1019.6 1020.0
18 16.11 штиль 0 1200 м дымка ясно +17.4 +16.4 94 +17 +17 1021.6 1022.0 +21.0
21 16.11 штиль 0 900 м туман ясно +16.4 +15.0 91 +16 +16 1022.0 1022.0
00 17.11 штиль 0 900 м туман ясно +15.2 +14.5 96 +15 +15 1022.2 1022.0
03 17.11 штиль 0 900 м туман ясно +13.8 +13.4 97 +13 +13 1023.2 1023.0
06 17.11 штиль 0 1200 м дымка {туман} 3/0
[Ci sp]
+14.2 +13.8 97 +14 +18 1024.6 1025.0 +12.4
09 17.11 З 2 10 км 3/0
[Ci fib]
+20.2 +16.2 78 +24 +31 комфорт 1023.9 1024.0
12 17.11 З 2 10 км ясно +22.6 +14.8 61 +26 +29 жарко 1022.7 1023.0
15 17.11 штиль 0 10 км ясно +19.8 +15.4 76 +22 +22 комфорт 1023.0 1023.0
18 17.11 СЗ 2 10 км ясно +17.8 +14.3 80 +18 +18 1023.2 1023.0 +23.5
00 18.11 штиль 0 2000 м дымка ясно +14.6 +12.8 89 +14 +14 1022.7 1023.0
03 18.11 СЗ 1 800 м туман 1/0
[Ci fib]
+13.8 +12.9 94 +14 +14 1022.8 1023.0
06 18.11 штиль 0 6000 м в посл. час туман 3/0
[Ci fib]
+15.4 +13.8 90 +15 +19 1024.0 1024.0 +13.0
09 18.11 СЗ 2 10 км 3/0
[Ci fib]
+20.8 +14.3 66 +24 +32 комфорт 1022.9 1023.0
12 18.11 З 4 10 км 3/3 1050 м
[Cu hum]
+22.4 +11.9 51 +25 +26 комфорт 1021.2 1021.0
15 18.11 штиль 0 10 км ясно +19.6 +14.2 71 +21 +21 комфорт 1020.8 1021.0
18 18.11 штиль 0 10 км ясно +12.5 +13 +13 1021.6 1022.0 +23.5
21 18.11 штиль 0 10 км ясно +15.2 +11.0 76 +15 +15 1010.9 1011.0

 

Местоположение метеостанции Diwaniya (Ирак): широта 31.98 долгота 44.98 высота над уровнем моря 20 м.

В архиве по умолчанию представлена погода в Diwaniya за последнюю неделю. Архивные данные за месяц целиком и за предыдущие месяцы, начиная с января 2011 года, Вы можете получить, выбрав интересующий диапазон дат из раскрывающегося списка и нажав кнопку "Ввод!".


*Определитесь, кто Вы:
робот инопланетянин человек

Внимание! Время в таблицах - всемирное. Для получения местного времени необходимо прибавить поправку, которая в Diwaniya равна 3 ч.

Смотрите также архив погоды в соседних городах и на ближайших метеорологических станциях:

Погода в Najaf (Ирак) (62 км)
Погода в Hella (Ирак) (72 км)
Погода в Samawah (Ирак) (80 км)
Погода в Ubaydah Bin Al Jarrah (Ирак) (92 км)
Погода в Kut-Al-Hai (Ирак) (103 км)
Погода в Azizyah (Ирак) (105 км)
Погода в Rifai (Ирак) (110 км)
Погода в Karbalaa (Ирак) (115 км)
Погода в Badrah (Ирак) (154 км)
Погода в Nasiriya (Ирак) (155 км)

Пояснения к столбцам:

Ветер - указаны скорость ветра в м/с - средняя за 10 мин, порывы в срок и между сроками (в фигурных скобках) и направление, откуда дует ветер: С - северный, СВ - северо-восточный, В - восточный, ЮВ - юго-восточный, Ю - южный, ЮЗ - юго-западный, З - западный, СЗ - северо-западный.
Видимость - горизонтальная дальность видимости в метрах или километрах. При видимости от 1 до 10 км при отсутствии осадков обычно наблюдается дымка, при ухудшении видимости до 1 км и менее - туман. В сухую погоду видимость может ухудшаться дымом, пылью или мглою.
Явления - указаны атмосферные явления, наблюдавшиеся в срок или в последний час перед сроком; фигурными скобками обозначены явления, наблюдавшиеся между сроками (за 1-3 часа до срока); квадратными скобками обозначены град или гололедные отложения с указанием их диаметра в мм.
Облачность - указаны через наклонную черту общая и нижняя облачность в баллах и высота нижней границы облаков в метрах; квадратными скобками обозначены формы облаков: Ci - перистые, Cs - перисто-слоистые, Cc - перисто-кучевые, Ac - высококучевые, As - высокослоистые, Sc - слоисто-кучевые, Ns - слоисто-дождевые, Cu - кучевые, Cb - кучево-дождевые. Подробнее классификацию облаков см. в Атласе облаков (PDF).
T - Температура воздуха - температура, измеренная на высоте 2 м над землей.
Td - Температура точки росы - температура, при понижении до которой содержащийся в воздухе водяной пар достигнет насыщения.
f - Относительная влажность воздуха - влажноcть воздуха, измеренная на высоте 2 м над землей.
Te - Эффективная температура - температура, которую ощущает одетый по сезону человек в тени. Характеристика душности погоды. При расчете учитывается влияние влажности воздуха и скорости ветра на теплоощущения человека.
Tes - Эффективная температура на солнце - температура, которую ощущает человек, с поправкой на солнечный нагрев. Характеристика знойности погоды. Зависит от высоты солнца над горизонтом, облачности и скорости ветра. Ночью, в пасмурную погоду, а также при ветре 12 м/с и более поправка равна нулю.
P - Атмосферное давление - приведенное к уровню моря атмосферное давление.
Po - Атмосферное давление - измеренное на уровне метеостанции атмосферное давление.
Tmin - Минимальная температура - минимум температуры воздуха на высоте 2 м над землей.
Tmax - Максимальная температура - максимум температуры воздуха на высоте 2 м над землей.
R - Количество осадков - Количество выпавших осадков за период времени, мм. При наведении курсора мыши на число - период времени, за который выпало указанное количество осадков.
R24 - Количество осадков - Количество выпавших осадков за 24 часа, мм.
S - Снежный покров - Высота снежного покрова, см. При наведении курсора мыши на число - состояние снежного покрова и степень покрытия местности в баллах.